Miscellaneous Local Product
Issued by NWS Hastings, NE

Home | Current Version | Previous Version | Graphics & Text | Print | Product List | Glossary On
Versions: 1 2 3 4 5 6 7 8 9 10 11 12 13 14 15 16 17 18 19 20 21 22 23 24 25 26 27 28 29 30 31 32 33 34 35 36 37 38 39 40 41 42 43 44 45 46 47 48 49 50
748
AXUS43 KGID 072002
MISGRI

GID CWA HOURLY WEATHER ROUNDUP
NATIONAL WEATHER SERVICE HASTINGS NE
200 PM CST WED DEC 07 2016

NOTE: "FAIR" INDICATES FEW OR NO CLOUDS BELOW 12,000 FEET WITH NO
SIGNIFICANT WEATHER AND/OR OBSTRUCTIONS TO VISIBILITY.

...SOUTH CENTRAL NEBRASKA...

CITY           SKY/WX    TMP DP  RH WIND       PRES   REMARKS
GRAND ISLAND   CLOUDY    21   3  45 NW14      30.32F WCI   8
HASTINGS       PTSUNNY   23   3  42 NW16      30.33S WCI  10
KEARNEY        SUNNY     23   1  39 NW14G20   30.32S WCI  11
ORD            PTSUNNY   21   0  39 NW17      30.31F WCI   7
YORK           CLOUDY    23   5  46 NW15G22   30.32S WCI  10
AURORA         CLOUDY    22   5  47 NW17G23   30.32S WCI   8
LEXINGTON      PTSUNNY   23   3  42 NW14G22   30.32S WCI  11
HOLDREGE       MOSUNNY   21   9  59 NW12      30.31S WCI  10
HEBRON         CLOUDY    26   7  44 NW10G17   30.34S WCI  16

...NEBRASKA PANHANDLE...

CITY           SKY/WX    TMP DP  RH WIND       PRES   REMARKS
CHADRON        SUNNY     12  -4  48 NW23G29   30.35S WCI  -7
ALLIANCE       PTSUNNY   14   3  61 NW12      30.26S WCI   0
SCOTTSBLUFF    PTSUNNY   14   0  53 NW18G24   30.31R WCI  -3
SIDNEY         CLOUDY    12   4  70 NW17      30.26R HAZE    WCI  -5

...WESTERN AND NORTH CENTRAL NEBRASKA...

CITY           SKY/WX    TMP DP  RH WIND       PRES   REMARKS
VALENTINE      SUNNY     16  -1  47 NW18G26   30.31F WCI   0
AINSWORTH      SUNNY     16   1  53 NW20G28   30.30S WCI  -1
ONEILL         MOSUNNY   18   2  49 NW23      30.31S WCI   1
BROKEN BOW     PTSUNNY   21   1  41 NW20      30.30S WCI   6
IMPERIAL       FLURRIES  16   8  71 N13       30.30S WCI   2
NORTH PLATTE   PTSUNNY   21   4  47 NW14      30.31S WCI   8
MCCOOK         LGT SNOW  18  10  71 N9        30.34R WCI   7

...EASTERN NEBRASKA...

CITY           SKY/WX    TMP DP  RH WIND       PRES   REMARKS
NORFOLK        MOSUNNY   20   2  45 NW18      30.28F WCI   5
SO SIOUX CITY  SUNNY     24   7  48 NW17G25   30.28S WCI  11
TEKAMAH        MOSUNNY   23   8  52 W18G24    30.31S WCI   9
COLUMBUS       MOSUNNY   21   3  45 W18       30.32S WCI   6
ALBION         CLOUDY    21   2  43 NW18G29   30.30S WCI   6
OMAHA EPPLEY   CLOUDY    25   8  48 NW16G25   30.31F WCI  12
OFFUTT AFB     CLOUDY    24   7  48 NW17      30.31F WCI  11
MILLARD        CLOUDY    25   8  48 NW13G25   30.32S WCI  13
LINCOLN        CLOUDY    24   5  44 NW16G24   30.35S WCI  11
NEBRASKA CITY  CLOUDY    24   4  43 NW16      30.32S WCI  10
BEATRICE       CLOUDY    25   8  46 NW15      30.33F WCI  13
FALLS CITY     CLOUDY    26  10  50 NW16      30.32F WCI  14

...NORTHERN KANSAS...

CITY           SKY/WX    TMP DP  RH WIND       PRES   REMARKS
GOODLAND       LGT SNOW  16   9  74 N13       30.26S WCI   2
HILL CITY      CLOUDY    22  14  71 N10       30.34S WCI  11
NORTON         CLOUDY    19  10  68 NW13      30.32S WCI   7
PHILLIPSBURG   PTSUNNY   23  14  68 NW12      30.36S WCI  12
SMITH CENTER   CLOUDY    21  16  79 NW12      30.36S WCI   9
BELOIT         MOSUNNY   25  16  68 NW10      30.36R WCI  15
HAYS           PTSUNNY   23  17  78 NE10      30.33R WCI  12
RUSSELL        PTSUNNY   23  16  74 N14       30.31  WCI  11
CONCORDIA      MOSUNNY   25  15  66 NW13      30.34F WCI  14
SALINA         CLOUDY    26  21  81 N13       30.35F HAZE    WCI  15
TOPEKA         LGT SNOW  27  21  78 NW7       30.34S WCI  19



USA.gov is the U.S. government's official web portal to all federal, state and local government web resources and services.